Total_Precipitation_Accumulation
1.16 1.30 1.30 1.37 1.30 1.33 1.23 1.07 0.89 0.80 0.70 0.62 0.64 0.64 0.57 0.57 0.55 0.61 0.76 0.84 0.89 1.04 1.18 1.17 1.05 0.95 0.89 0.87 0.81 0.72 0.69 0.65 0.61 0.53 0.45 0.40 0.37 0.35 0.34 0.35 0.34 0.32 0.30
1.45 1.50 1.53 1.60 1.50 1.50 1.52 1.39 1.17 1.05 0.96 0.86 0.80 0.78 0.76 0.80 0.81 0.79 0.92 0.98 0.98 0.99 1.13 1.31 1.32 1.28 1.27 1.26 1.14 0.96 0.87 0.81 0.77 0.70 0.63 0.53 0.46 0.41 0.39 0.39 0.39 0.36 0.33
1.76 1.70 1.85 1.94 1.79 1.73 1.74 1.64 1.54 1.30 1.27 1.25 1.19 1.09 1.01 0.99 1.06 1.09 1.12 1.20 1.24 1.17 1.14 1.25 1.35 1.39 1.42 1.46 1.35 1.21 1.13 1.06 1.00 0.90 0.80 0.70 0.60 0.51 0.45 0.43 0.43 0.41 0.36
2.08 2.15 2.11 2.04 1.99 1.95 1.93 1.98 1.82 1.59 1.53 1.63 1.58 1.39 1.20 1.20 1.31 1.33 1.30 1.35 1.43 1.38 1.36 1.26 1.29 1.37 1.43 1.49 1.46 1.45 1.39 1.32 1.21 1.07 0.96 0.88 0.79 0.71 0.63 0.56 0.50 0.47 0.43
2.42 2.52 2.60 2.47 2.28 2.17 2.16 2.05 2.00 1.89 1.87 1.86 1.66 1.47 1.29 1.24 1.31 1.36 1.34 1.40 1.50 1.56 1.54 1.36 1.34 1.47 1.53 1.56 1.54 1.54 1.54 1.49 1.37 1.23 1.14 1.04 0.96 0.86 0.76 0.68 0.61 0.56 0.53
3.05 2.99 2.88 2.74 2.56 2.45 2.40 2.30 2.24 2.17 2.04 1.89 1.60 1.43 1.25 1.16 1.19 1.26 1.31 1.32 1.33 1.37 1.38 1.33 1.31 1.30 1.39 1.47 1.55 1.61 1.64 1.66 1.60 1.44 1.32 1.24 1.17 1.07 0.96 0.87 0.78 0.73 0.67
3.56 3.49 3.37 3.18 2.98 2.77 2.62 2.42 2.28 2.20 2.03 1.84 1.66 1.50 1.27 1.07 1.07 1.11 1.12 1.14 1.17 1.16 1.18 1.21 1.28 1.24 1.20 1.28 1.31 1.46 1.60 1.71 1.79 1.76 1.69 1.60 1.46 1.31 1.17 1.05 0.95 0.87 0.79
4.06 3.93 3.82 3.58 3.32 3.07 2.82 2.60 2.34 2.17 1.98 1.79 1.69 1.68 1.50 1.29 1.02 0.87 0.87 0.87 0.89 0.88 0.91 0.99 0.99 0.99 0.97 1.02 1.11 1.22 1.33 1.38 1.42 1.48 1.53 1.50 1.44 1.38 1.30 1.21 1.14 1.06 1.00
4.13 3.81 3.62 3.55 3.32 2.96 2.71 2.51 2.29 2.10 1.90 1.74 1.59 1.63 1.55 1.38 1.15 0.99 0.85 0.75 0.74 0.78 0.81 0.88 0.91 0.86 0.80 0.79 0.86 0.96 0.99 0.97 1.04 1.07 1.13 1.17 1.18 1.17 1.18 1.20 1.23 1.21 1.15
3.88 3.55 3.27 3.03 2.81 2.53 2.29 2.13 2.03 1.93 1.83 1.71 1.59 1.38 1.18 1.02 1.04 1.03 0.93 0.82 0.75 0.76 0.73 0.71 0.74 0.77 0.74 0.72 0.79 0.86 0.85 0.83 0.88 0.87 0.89 0.95 1.00 1.00 0.98 1.01 1.07 1.15 1.20
3.11 2.83 2.55 2.28 2.06 1.86 1.68 1.52 1.49 1.60 1.66 1.64 1.61 1.51 1.33 1.13 0.98 0.93 0.94 0.89 0.85 0.84 0.79 0.73 0.69 0.69 0.67 0.66 0.68 0.80 0.83 0.75 0.73 0.73 0.71 0.70 0.73 0.81 0.88 0.93 0.96 1.03 1.10
2.38 2.13 1.89 1.67 1.48 1.31 1.17 1.12 1.11 1.18 1.28 1.35 1.38 1.37 1.35 1.33 1.23 1.09 1.05 1.01 0.98 0.98 0.92 0.86 0.81 0.76 0.72 0.71 0.76 0.92 0.83 0.79 0.73 0.68 0.61 0.56 0.54 0.58 0.67 0.76 0.86 0.98 1.06
1.70 1.49 1.31 1.17 1.04 0.94 0.91 0.87 0.88 0.94 0.98 1.03 1.10 1.16 1.19 1.20 1.19 1.18 1.18 1.14 1.04 0.97 0.88 0.84 0.81 0.77 0.73 0.68 0.68 0.75 0.69 0.70 0.67 0.62 0.57 0.53 0.49 0.48 0.50 0.55 0.63 0.74 0.84
1.02 0.89 0.81 0.73 0.70 0.69 0.67 0.65 0.66 0.71 0.75 0.77 0.79 0.85 0.92 0.96 0.95 0.97 1.00 1.02 1.05 0.98 0.85 0.79 0.72 0.69 0.64 0.57 0.63 0.65 0.59 0.63 0.58 0.50 0.43 0.37 0.34 0.33 0.36 0.39 0.43 0.47 0.53
0.70 0.62 0.56 0.53 0.51 0.51 0.50 0.47 0.44 0.43 0.50 0.57 0.58 0.59 0.63 0.65 0.64 0.65 0.68 0.72 0.81 0.88 0.80 0.68 0.63 0.60 0.55 0.52 0.57 0.50 0.51 0.56 0.50 0.43 0.36 0.29 0.26 0.25 0.26 0.28 0.31 0.32 0.34
0.47 0.42 0.36 0.32 0.31 0.31 0.32 0.34 0.34 0.31 0.32 0.36 0.38 0.39 0.43 0.45 0.45 0.48 0.52 0.56 0.62 0.72 0.75 0.60 0.52 0.48 0.45 0.40 0.43 0.42 0.44 0.43 0.36 0.31 0.26 0.22 0.20 0.19 0.20 0.21 0.22 0.24 0.26
0.28 0.26 0.24 0.21 0.20 0.20 0.22 0.26 0.28 0.29 0.30 0.31 0.29 0.29 0.31 0.33 0.34 0.35 0.37 0.40 0.44 0.50 0.57 0.51 0.40 0.35 0.35 0.37 0.38 0.36 0.33 0.29 0.24 0.24 0.22 0.21 0.18 0.16 0.16 0.17 0.18 0.19 0.21
0.19 0.19 0.19 0.18 0.16 0.16 0.19 0.21 0.21 0.22 0.25 0.27 0.26 0.25 0.25 0.26 0.29 0.29 0.30 0.31 0.34 0.41 0.49 0.51 0.39 0.31 0.29 0.30 0.31 0.31 0.21 0.18 0.20 0.21 0.20 0.18 0.16 0.16 0.15 0.13 0.14 0.13 0.12
0.17 0.15 0.14 0.14 0.12 0.12 0.13 0.15 0.15 0.16 0.18 0.20 0.19 0.19 0.19 0.20 0.22 0.22 0.23 0.25 0.27 0.30 0.37 0.41 0.32 0.26 0.21 0.19 0.26 0.27 0.25 0.30 0.18 0.13 0.12 0.11 0.11 0.11 0.11 0.10 0.09 0.08 0.06
0.13 0.11 0.10 0.10 0.10 0.09 0.09 0.08 0.07 0.09 0.12 0.12 0.12 0.12 0.13 0.15 0.18 0.21 0.20 0.22 0.25 0.28 0.29 0.32 0.28 0.23 0.21 0.20 0.32 0.40 0.37 0.31 0.23 0.12 0.12 0.10 0.10 0.09 0.11 0.14 0.11 0.09 0.08
0.11 0.10 0.09 0.10 0.09 0.08 0.06 0.04 0.04 0.05 0.07 0.08 0.08 0.08 0.08 0.11 0.16 0.19 0.20 0.23 0.27 0.32 0.33 0.36 0.34 0.30 0.27 0.34 0.43 0.44 0.40 0.31 0.24 0.19 0.22 0.20 0.24 0.38 0.57 0.62 0.41 0.21 0.13
0.13 0.11 0.10 0.10 0.09 0.09 0.08 0.06 0.04 0.05 0.06 0.08 0.09 0.09 0.08 0.08 0.10 0.11 0.13 0.17 0.24 0.32 0.39 0.44 0.42 0.39 0.36 0.43 0.51 0.52 0.54 0.49 0.41 0.27 0.29 0.27 0.37 0.73 1.11 1.33 0.92 0.40 0.26
0.16 0.13 0.10 0.10 0.11 0.09 0.08 0.06 0.05 0.05 0.07 0.12 0.14 0.15 0.11 0.10 0.15 0.17 0.15 0.12 0.16 0.22 0.36 0.51 0.55 0.48 0.46 0.53 0.63 0.64 0.61 0.60 0.53 0.39 0.43 0.44 0.53 0.84 0.95 1.07 1.02 0.65 0.50
0.16 0.15 0.12 0.11 0.12 0.09 0.08 0.05 0.03 0.06 0.10 0.12 0.13 0.15 0.19 0.22 0.18 0.14 0.11 0.16 0.26 0.37 0.42 0.45 0.53 0.49 0.47 0.52 0.62 0.65 0.61 0.56 0.52 0.49 0.54 0.60 0.61 0.77 0.78 1.05 1.25 1.11 0.92
0.16 0.14 0.12 0.13 0.14 0.11 0.06 0.05 0.03 0.07 0.09 0.10 0.10 0.11 0.14 0.19 0.15 0.13 0.15 0.25 0.34 0.42 0.35 0.43 0.49 0.55 0.60 0.60 0.56 0.56 0.68 0.73 0.70 0.55 0.54 0.61 0.68 0.77 0.89 1.20 1.30 1.30 1.22
0.14 0.12 0.12 0.12 0.14 0.13 0.04 0.02 0.03 0.07 0.10 0.10 0.13 0.17 0.14 0.11 0.13 0.14 0.18 0.29 0.40 0.43 0.53 0.71 0.85 0.91 0.85 0.77 0.64 0.64 0.79 0.85 0.85 0.78 0.59 0.61 0.71 0.86 1.12 1.32 1.31 1.22 1.21